Flag for USA Past Weather in Furnace Creek (Death Valley), California, USA — Yesterday and Last 2 Weeks

Now
66 °F

Clear.


Feels Like: 66 °F
Forecast: 71 / 101 °F
Wind: 16 mph from Northeast

Location: Desert Rock Airport

Current Time: Sep 25, 2016 at 3:36:57 AM

Latest Report: Sep 25, 2016 at 2:53 AM


Visibility: 10 mi

Pressure: 30.12 "Hg

Humidity: 20%

Dew Point: 24 °F

Location of Furnace Creek (Death Valley)Location

Past Weather in Furnace Creek (Death Valley) — Graph

°F

Furnace Creek (Death Valley) Temperature Yesterday

Maximum temperature yesterday: 86 °F (at 4:53 PM)
Minimum temperature yesterday: 57 °F (at 4:53 AM)
Average temperature yesterday: 72 °F

High & Low Weather Summary for the Past Weeks

 TemperatureHumidityPressure
High97 °F (Sep 10, 1:53 PM)75% (Sep 21, 6:53 AM)30.11 "Hg (Sep 21, 6:53 AM)
Low50 °F (Sep 23, 6:53 AM)4% (Sep 18, 4:53 PM)29.55 "Hg (Sep 12, 5:53 PM)
Average75 °F21%29.86 "Hg
* Reported Sep 10 1:53 AM — Sep 25 1:53 AM, Furnace Creek (Death Valley), Weather by CustomWeather, © 2016

Note: Actual official high and low records may vary slightly from our data, if they occured in-between our weather recording intervals... More about our weather records

Advertising

Furnace Creek (Death Valley) Weather History for the Previous 24 Hours

Scroll right to see more
 ConditionsComfort  
Time TempWeatherWind HumidityBarometerVisibility
1:53 AM
Sun, Sep 25
68 °FClear.18 mph18%30.11 "Hg10 mi
12:53 AM69 °FClear.15 mph16%30.09 "Hg10 mi
11:53 PM
Sat, Sep 24
68 °FClear.12 mph17%30.08 "Hg10 mi
10:53 PM70 °FClear.13 mph18%30.08 "Hg10 mi
9:53 PM74 °FClear.13 mph16%30.07 "Hg10 mi
8:53 PM74 °FClear.13 mph13%30.05 "Hg10 mi
7:53 PM75 °FClear.9 mph11%30.03 "Hg10 mi
6:53 PM79 °FClear.10 mph10%30.01 "Hg10 mi
5:53 PM84 °FSunny.16 mph8%29.99 "Hg10 mi
4:53 PM86 °FSunny.9 mph8%29.99 "Hg10 mi
3:53 PM85 °FSunny.12 mph9%29.99 "Hg10 mi
2:53 PM84 °FSunny.10 mph10%30.01 "Hg10 mi
1:53 PM83 °FSunny.15 mph12%30.02 "Hg10 mi
12:53 PM81 °FSunny.17 mph14%30.03 "Hg10 mi
11:53 AM79 °FSunny.18 mph17%30.06 "Hg10 mi
10:53 AM75 °FSunny.13 mph20%30.08 "Hg10 mi
9:53 AM72 °FSunny.18 mph20%30.09 "Hg10 mi
8:53 AM69 °FSunny.15 mph21%30.08 "Hg10 mi
7:53 AM64 °FSunny.6 mph24%30.08 "Hg10 mi
6:53 AM61 °FSunny.9 mph25%30.07 "Hg10 mi
5:53 AM60 °FClear.13 mph26%30.03 "Hg10 mi
4:53 AM57 °FClear.5 mph28%30.03 "Hg10 mi
3:53 AM60 °FClear.10 mph25%30.02 "Hg10 mi
Weather by CustomWeather, © 2016

See weather overviewHow to use our weather pages